Location: Deurze
(52.9838°N, 6.6090°E)
Time: 18:34:49
(UTC+00:00)

Cosmos 1151 Rocket - Pass Details

Date: 11 March 2026
Orbit: 583 x 606 km, 82.5° (Epoch: 20 April)

Event Time Altitude Azimuth Distance (km) Brightness Sun altitude
Rises 19:51:28 0° 348° (NNW) 2,837 7.0 -21.5°
Reaches altitude 10° 19:53:41 10° 348° (NNW) 1,928 6.0 -21.8°
Maximum altitude 19:57:57 87° 259° (WSW) 595 2.9 -22.4°
Enters shadow 19:58:31 67° 176° (S) 642 2.9 -22.5°
